Volver al catálogo

BREEZE-M DEB

TANK

ActivoHEO
NORAD 45988·DEBRIS·🇷🇺 Russia

Lanzado Jul 30, 2020 desde Baikonur Cosmodrome

Loading…

Próximos Pases (próximas 24 horas)

TLE

ActualizadoSource: Space-Track

Época: Sep 14, 2026, 05:48 UTC

1 45988U 20053D   26257.24213266  .00000557  00000-0  48880-3 0  9990
2 45988  49.6483 325.7995 6221841 339.6346   3.8913  3.64494834 80016

Sigue BREEZE-M DEB en tiempo real con AllMySat

Download on the App Store